�������l�o���
Date,Time,MP-1(��Sv/h),MP-2(��Sv/h),MP-3(��Sv/h),MP-4(��Sv/h),MP-5(��Sv/h),MP-6(��Sv/h),MP-7(��Sv/h),MP-8(��Sv/h),����,����(m/s),���J
2019/06/06,00:00,0.775,1.127,0.779,1.411,1.052,0.445,0.774,0.730,�k,1.1,��
2019/06/06,00:10,0.777,1.125,0.778,1.408,1.055,0.445,0.774,0.727,�k��,2.3,��
2019/06/06,00:20,0.775,1.123,0.778,1.409,1.054,0.446,0.772,0.728,�k��,3.6,��
2019/06/06,00:30,0.776,1.124,0.780,1.408,1.052,0.444,0.774,0.728,�k��,4.6,��
2019/06/06,00:40,0.777,1.125,0.777,1.408,1.052,0.444,0.772,0.729,���k��,6.4,��
2019/06/06,00:50,0.776,1.124,0.779,1.410,1.051,0.445,0.773,0.730,�k��,5.3,��
2019/06/06,01:00,0.776,1.126,0.778,1.409,1.051,0.443,0.773,0.729,�k��,3.7,��
2019/06/06,01:10,0.776,1.125,0.779,1.407,1.052,0.443,0.773,0.730,�k��,3.9,��
2019/06/06,01:20,0.777,1.124,0.778,1.408,1.053,0.445,0.774,0.730,���k��,4.6,��
2019/06/06,01:30,0.776,1.125,0.778,1.410,1.051,0.446,0.773,0.728,�k��,5.7,��
2019/06/06,01:40,0.776,1.127,0.777,1.408,1.053,0.444,0.774,0.728,�k�k��,6.1,��
2019/06/06,01:50,0.777,1.129,0.777,1.408,1.054,0.445,0.776,0.728,�k��,5.8,��
2019/06/06,02:00,0.774,1.126,0.778,1.407,1.050,0.446,0.773,0.729,�k�k��,4.8,�L
2019/06/06,02:10,0.775,1.127,0.777,1.409,1.052,0.446,0.773,0.729,�k�k��,6.9,�L
2019/06/06,02:20,0.776,1.125,0.778,1.412,1.053,0.445,0.773,0.728,�k��,5.4,�L
2019/06/06,02:30,0.776,1.127,0.779,1.410,1.053,0.444,0.773,0.730,�k�k��,5.2,�L
2019/06/06,02:40,0.778,1.124,0.780,1.407,1.053,0.445,0.773,0.730,�k�k��,5.1,�L
2019/06/06,02:50,0.776,1.127,0.780,1.410,1.052,0.443,0.774,0.729,�k�k��,5.2,�L
2019/06/06,03:00,0.775,1.123,0.780,1.406,1.052,0.445,0.773,0.729,�k�k��,4.4,�L
2019/06/06,03:10,0.777,1.127,0.779,1.409,1.049,0.446,0.773,0.728,�k,5.2,�L
2019/06/06,03:20,0.777,1.124,0.778,1.407,1.052,0.445,0.773,0.730,�k,5.6,�L
2019/06/06,03:30,0.776,1.128,0.778,1.410,1.050,0.444,0.774,0.728,�k��,4.7,�L
2019/06/06,03:40,0.775,1.128,0.778,1.409,1.050,0.444,0.772,0.730,�k��,4.4,��
2019/06/06,03:50,0.775,1.125,0.778,1.408,1.052,0.443,0.776,0.730,�쐼,1.5,��
2019/06/06,04:00,0.775,1.124,0.778,1.408,1.051,0.444,0.773,0.727,�k��,2.8,��
2019/06/06,04:10,0.775,1.123,0.779,1.408,1.050,0.443,0.772,0.730,���k��,2.3,��
2019/06/06,04:20,0.775,1.123,0.778,1.407,1.052,0.444,0.774,0.728,���k��,2.0,��
2019/06/06,04:30,0.774,1.125,0.776,1.408,1.053,0.446,0.773,0.727,���k��,1.5,��
2019/06/06,04:40,0.776,1.123,0.777,1.408,1.052,0.443,0.773,0.729,�k��,0.6,��
2019/06/06,04:50,0.774,1.125,0.777,1.408,1.049,0.445,0.772,0.729,�k�k��,1.9,��
2019/06/06,05:00,0.776,1.124,0.777,1.407,1.050,0.444,0.773,0.728,�k�k��,2.6,��
2019/06/06,05:10,0.775,1.125,0.777,1.406,1.050,0.442,0.771,0.729,�k��,3.0,��
2019/06/06,05:20,0.776,1.124,0.778,1.409,1.052,0.444,0.773,0.728,�k��,3.2,��
2019/06/06,05:30,0.776,1.122,0.779,1.407,1.052,0.443,0.775,0.728,�k��,4.0,��
2019/06/06,05:40,0.775,1.125,0.778,1.409,1.050,0.444,0.773,0.728,�k��,5.0,��
2019/06/06,05:50,0.773,1.124,0.777,1.407,1.051,0.445,0.775,0.729,�k��,5.5,��
2019/06/06,06:00,0.777,1.125,0.777,1.406,1.051,0.444,0.774,0.728,���k��,5.7,��
2019/06/06,06:10,0.774,1.126,0.777,1.408,1.050,0.442,0.774,0.728,���k��,5.5,��
2019/06/06,06:20,0.774,1.122,0.778,1.409,1.048,0.442,0.773,0.730,�k��,4.6,��
2019/06/06,06:30,0.775,1.124,0.776,1.408,1.048,0.444,0.774,0.731,�k��,3.9,��
2019/06/06,06:40,0.774,1.121,0.777,1.407,1.051,0.443,0.774,0.729,�k��,2.8,��
2019/06/06,06:50,0.774,1.121,0.776,1.407,1.049,0.443,0.775,0.730,�k��,2.9,��
2019/06/06,07:00,0.772,1.120,0.777,1.409,1.049,0.442,0.773,0.728,�k��,2.8,��
2019/06/06,07:10,0.774,1.123,0.777,1.409,1.052,0.440,0.774,0.729,�k��,2.6,��
2019/06/06,07:20,0.775,1.119,0.778,1.406,1.049,0.440,0.773,0.730,�k,2.2,��
2019/06/06,07:30,0.773,1.119,0.779,1.410,1.048,0.441,0.772,0.729,�k�k��,2.6,��
2019/06/06,07:40,0.772,1.122,0.778,1.409,1.051,0.441,0.772,0.728,�k�k��,2.2,��
2019/06/06,07:50,0.772,1.119,0.779,1.406,1.052,0.442,0.773,0.727,�k�k��,2.2,��
2019/06/06,08:00,0.775,1.122,0.777,1.410,1.053,0.440,0.772,0.727,�k�k��,3.4,��
2019/06/06,08:10,0.775,1.122,0.778,1.410,1.053,0.440,0.771,0.724,�k�k��,4.0,��
2019/06/06,08:20,0.775,1.120,0.777,1.410,1.050,0.439,0.772,0.725,�k�k��,3.7,��
2019/06/06,08:30,0.775,1.120,0.776,1.408,1.051,0.441,0.770,0.725,�k�k��,4.0,��
2019/06/06,08:40,0.774,1.119,0.776,1.404,1.051,0.441,0.771,0.727,�k��,2.3,��
2019/06/06,08:50,0.774,1.121,0.777,1.410,1.050,0.441,0.770,0.726,�k��,3.0,��
2019/06/06,09:00,0.773,1.121,0.777,1.407,1.049,0.442,0.771,0.727,��,3.4,��
2019/06/06,09:10,0.775,1.123,0.774,1.409,1.051,0.440,0.773,0.728,��,2.3,��
2019/06/06,09:20,0.774,1.122,0.776,1.408,1.050,0.442,0.772,0.727,���쓌,3.3,��
2019/06/06,09:30,0.776,1.121,0.776,1.411,1.052,0.442,0.772,0.726,���쓌,3.2,��
2019/06/06,09:40,0.775,1.120,0.776,1.411,1.051,0.442,0.771,0.727,��,2.5,��
2019/06/06,09:50,0.773,1.122,0.775,1.409,1.052,0.441,0.771,0.726,���k��,2.9,��
2019/06/06,10:00,0.774,1.121,0.777,1.409,1.049,0.442,0.772,0.726,���k��,2.6,��
2019/06/06,10:10,0.773,1.120,0.776,1.411,1.052,0.442,0.772,0.726,���k��,3.5,��
2019/06/06,10:20,0.773,1.121,0.775,1.410,1.051,0.442,0.774,0.726,���k��,4.3,��
2019/06/06,10:30,0.772,1.122,0.777,1.407,1.052,0.440,0.771,0.725,���k��,3.5,��
2019/06/06,10:40,0.775,1.124,0.774,1.407,1.050,0.438,0.769,0.725,���k��,3.7,��
2019/06/06,10:50,0.774,1.123,0.776,1.407,1.052,0.438,0.770,0.726,�k��,3.6,��
2019/06/06,11:00,0.775,1.121,0.776,1.407,1.051,0.438,0.771,0.726,�k��,2.0,��
2019/06/06,11:10,0.774,1.122,0.776,1.407,1.052,0.438,0.771,0.725,���k��,2.2,��
2019/06/06,11:20,0.774,1.124,0.775,1.406,1.052,0.437,0.772,0.727,�k��,2.2,��
2019/06/06,11:30,0.775,1.125,0.775,1.407,1.052,0.440,0.772,0.728,�k��,2.2,��
2019/06/06,11:40,0.775,1.124,0.775,1.406,1.051,0.441,0.771,0.726,�k��,2.0,��
2019/06/06,11:50,0.774,1.122,0.778,1.406,1.053,0.440,0.771,0.727,�k�k��,2.6,��
2019/06/06,12:00,0.777,1.126,0.775,1.410,1.052,0.442,0.770,0.727,�k��,2.8,��
2019/06/06,12:10,0.774,1.128,0.777,1.409,1.052,0.441,0.772,0.726,�k��,2.3,��
2019/06/06,12:20,0.775,1.127,0.776,1.406,1.052,0.441,0.771,0.726,���k��,2.3,��
2019/06/06,12:30,0.775,1.124,0.775,1.410,1.052,0.442,0.769,0.727,��,2.3,��
2019/06/06,12:40,0.776,1.123,0.776,1.408,1.052,0.441,0.770,0.725,���쓌,1.2,��
2019/06/06,12:50,0.775,1.125,0.775,1.406,1.052,0.442,0.769,0.727,���k��,1.7,��
2019/06/06,13:00,0.775,1.123,0.776,1.409,1.053,0.441,0.771,0.725,���k��,2.0,�L
2019/06/06,13:10,0.775,1.127,0.775,1.410,1.051,0.441,0.770,0.726,���k��,3.1,��
2019/06/06,13:20,0.775,1.123,0.776,1.409,1.052,0.440,0.771,0.726,��,2.6,��
2019/06/06,13:30,0.774,1.125,0.775,1.407,1.053,0.440,0.767,0.726,��,3.7,��
2019/06/06,13:40,0.773,1.123,0.775,1.407,1.055,0.441,0.768,0.726,��,3.0,��
2019/06/06,13:50,0.775,1.123,0.776,1.407,1.054,0.441,0.770,0.725,��,3.5,��
2019/06/06,14:00,0.774,1.123,0.776,1.409,1.052,0.440,0.768,0.725,���k��,2.0,��
2019/06/06,14:10,0.774,1.122,0.776,1.410,1.053,0.441,0.768,0.727,�k��,2.8,��
2019/06/06,14:20,0.774,1.122,0.780,1.408,1.052,0.441,0.769,0.727,���k��,3.0,��
2019/06/06,14:30,0.773,1.123,0.776,1.410,1.053,0.443,0.768,0.726,���k��,3.6,��
2019/06/06,14:40,0.773,1.124,0.775,1.410,1.053,0.441,0.769,0.726,�k��,2.6,��
2019/06/06,14:50,0.772,1.123,0.777,1.409,1.053,0.441,0.767,0.727,���k��,3.1,��
2019/06/06,15:00,0.774,1.125,0.777,1.409,1.055,0.440,0.768,0.726,���k��,3.2,��
2019/06/06,15:10,0.774,1.121,0.777,1.410,1.053,0.440,0.769,0.726,�k�k��,2.0,��
2019/06/06,15:20,0.774,1.124,0.777,1.411,1.054,0.440,0.772,0.726,�k��,3.2,��
2019/06/06,15:30,0.775,1.125,0.777,1.411,1.053,0.439,0.770,0.726,�k�k��,3.6,��
2019/06/06,15:40,0.774,1.125,0.776,1.411,1.055,0.440,0.770,0.726,�k�k��,3.9,��
2019/06/06,15:50,0.772,1.124,0.777,1.414,1.054,0.440,0.769,0.725,�k�k��,4.0,��
2019/06/06,16:00,0.775,1.125,0.777,1.411,1.052,0.440,0.770,0.725,�k�k��,3.4,��
2019/06/06,16:10,0.774,1.127,0.775,1.409,1.054,0.439,0.770,0.726,�k�k��,3.5,��
2019/06/06,16:20,0.772,1.129,0.775,1.410,1.053,0.439,0.771,0.725,�k�k��,2.8,��
2019/06/06,16:30,0.774,1.127,0.775,1.408,1.052,0.441,0.769,0.725,�k,3.1,��
2019/06/06,16:40,0.772,1.126,0.775,1.410,1.053,0.438,0.769,0.725,�k�k��,3.1,��
2019/06/06,16:50,0.774,1.127,0.776,1.409,1.051,0.439,0.769,0.725,�k�k��,3.4,��
2019/06/06,17:00,0.773,1.128,0.774,1.410,1.053,0.439,0.768,0.724,�k�k��,3.5,��
2019/06/06,17:10,0.775,1.126,0.774,1.412,1.051,0.439,0.769,0.724,�k�k��,3.4,��
2019/06/06,17:20,0.773,1.129,0.777,1.412,1.052,0.437,0.770,0.725,�k,3.3,��
2019/06/06,17:30,0.771,1.129,0.778,1.412,1.050,0.437,0.768,0.727,�k�k��,3.2,��
2019/06/06,17:40,0.772,1.128,0.777,1.412,1.053,0.439,0.770,0.726,�k�k��,2.6,��
2019/06/06,17:50,0.773,1.132,0.777,1.411,1.051,0.441,0.769,0.727,�k�k��,3.3,��
2019/06/06,18:00,0.773,1.130,0.777,1.416,1.052,0.440,0.768,0.727,�k�k��,3.6,��
2019/06/06,18:10,0.772,1.129,0.778,1.415,1.050,0.439,0.769,0.728,�k�k��,2.9,��
2019/06/06,18:20,0.771,1.130,0.779,1.415,1.052,0.438,0.768,0.728,�k,2.8,��
2019/06/06,18:30,0.774,1.131,0.778,1.414,1.053,0.439,0.768,0.726,�k,3.2,��
2019/06/06,18:40,0.771,1.130,0.779,1.415,1.051,0.439,0.769,0.727,�k�k��,2.6,��
2019/06/06,18:50,0.771,1.128,0.778,1.411,1.055,0.440,0.769,0.727,�k,2.9,��
2019/06/06,19:00,0.774,1.131,0.778,1.415,1.055,0.440,0.768,0.725,�k,3.0,��
2019/06/06,19:10,0.773,1.132,0.779,1.415,1.052,0.440,0.770,0.726,�k�k��,2.3,��
2019/06/06,19:20,0.774,1.130,0.778,1.414,1.055,0.440,0.768,0.725,�k,2.5,��
2019/06/06,19:30,0.774,1.131,0.779,1.414,1.053,0.438,0.771,0.727,�k�k��,2.8,��
2019/06/06,19:40,0.774,1.131,0.778,1.413,1.055,0.440,0.769,0.726,�k�k��,2.8,��
2019/06/06,19:50,0.773,1.129,0.778,1.415,1.054,0.439,0.769,0.727,�k�k��,2.3,��
2019/06/06,20:00,0.774,1.130,0.778,1.414,1.054,0.437,0.768,0.728,�k�k��,2.2,��
2019/06/06,20:10,0.773,1.131,0.777,1.413,1.053,0.438,0.769,0.727,�k�k��,2.0,��
2019/06/06,20:20,0.775,1.130,0.777,1.413,1.054,0.439,0.770,0.727,�k�k��,2.2,��
2019/06/06,20:30,0.775,1.128,0.779,1.414,1.055,0.439,0.770,0.729,�k�k��,1.5,��
2019/06/06,20:40,0.776,1.129,0.779,1.413,1.053,0.438,0.769,0.729,�k�k��,1.9,��
2019/06/06,20:50,0.775,1.126,0.778,1.413,1.052,0.439,0.768,0.728,�k�k��,1.9,��
2019/06/06,21:00,0.773,1.127,0.778,1.414,1.053,0.440,0.769,0.727,�k�k��,2.5,��
2019/06/06,21:10,0.776,1.126,0.778,1.413,1.052,0.439,0.769,0.728,�k�k��,2.2,��
2019/06/06,21:20,0.773,1.128,0.777,1.412,1.054,0.439,0.771,0.727,�k,2.3,��
2019/06/06,21:30,0.772,1.127,0.778,1.412,1.053,0.442,0.770,0.728,�k,2.0,��
2019/06/06,21:40,0.773,1.127,0.778,1.411,1.051,0.440,0.769,0.729,�k�k��,1.7,��
2019/06/06,21:50,0.773,1.127,0.775,1.412,1.053,0.439,0.769,0.729,�k�k��,2.0,��
2019/06/06,22:00,0.773,1.128,0.777,1.411,1.054,0.439,0.770,0.729,�k,2.5,��
2019/06/06,22:10,0.773,1.129,0.777,1.413,1.054,0.439,0.771,0.728,�k,2.2,��
2019/06/06,22:20,0.772,1.127,0.778,1.412,1.054,0.440,0.770,0.727,�k,2.6,��
2019/06/06,22:30,0.773,1.127,0.776,1.411,1.055,0.439,0.769,0.729,�k,2.3,��
2019/06/06,22:40,0.772,1.125,0.777,1.413,1.053,0.439,0.771,0.728,�k�k��,2.6,��
2019/06/06,22:50,0.773,1.127,0.777,1.411,1.054,0.440,0.771,0.728,�k�k��,2.2,��
2019/06/06,23:00,0.773,1.127,0.776,1.413,1.053,0.439,0.769,0.728,�k�k��,1.9,��
2019/06/06,23:10,0.773,1.127,0.777,1.412,1.052,0.438,0.769,0.726,�k�k��,2.0,��
2019/06/06,23:20,0.772,1.128,0.778,1.414,1.051,0.440,0.770,0.728,�k��,2.2,��
2019/06/06,23:30,0.771,1.125,0.775,1.411,1.053,0.440,0.770,0.729,�k�k��,2.6,��
2019/06/06,23:40,0.775,1.127,0.778,1.412,1.050,0.440,0.770,0.728,�k�k��,2.0,��
2019/06/06,23:50,0.772,1.126,0.774,1.412,1.054,0.440,0.769,0.728,�k,1.5,��
